Location: Libas
(9.8833°N, 125.9833°E)
Time: 08:08:59
(UTC+00:00)

Meteor 1-31 Rocket - Visible Passes

Search period start: 05 March 2021 00:00
Search period end: 15 March 2021 00:00
Orbit: 521 x 545 km, 97.6° (Epoch: 04 March)

Date Brightness Start Highest point End Pass type
(mag) Time Alt. Az. Time Alt. Az. Time Alt. Az.
05 Mar 3.9 20:48:36 10° NNW 20:51:06 23° WNW 20:51:06 23° WNW visible
06 Mar 3.4 20:38:51 10° NNW 20:41:51 33° WNW 20:41:51 33° WNW visible
07 Mar 2.9 20:29:14 10° N 20:32:35 48° WNW 20:32:35 48° WNW visible
08 Mar 2.6 20:19:42 10° N 20:23:19 71° NW 20:23:19 71° NW visible
09 Mar 2.7 20:10:16 10° NNE 20:14:02 77° E 20:14:02 77° E visible
10 Mar 3.4 20:00:56 10° NNE 20:04:37 52° E 20:04:45 52° ESE visible
11 Mar 4.2 19:51:41 10° NNE 19:55:11 36° E 19:55:27 36° ESE visible
12 Mar 4.8 19:42:33 10° NE 19:45:44 26° E 19:46:08 25° ESE visible
13 Mar 5.3 19:33:36 10° NE 19:36:18 19° E 19:36:50 18° ESE visible
13 Mar 4.5 21:08:34 10° NW 21:10:24 13° WNW 21:12:12 10° WSW visible
14 Mar 5.8 19:24:58 10° ENE 19:26:51 13° E 19:27:30 13° ESE visible
14 Mar 4.1 20:58:22 10° NNW 21:01:00 18° WNW 21:02:53 13° WSW visible
